Miscellaneous Local Product
Issued by NWS Hastings, NE

Home | Current Version | Previous Version | Graphics & Text | Print | Product List | Glossary On
Versions: 1 2 3 4 5 6 7 8 9 10 11 12 13 14 15 16 17 18 19 20 21 22 23 24 25 26 27 28 29 30 31 32 33 34 35 36 37 38 39 40 41 42 43 44 45 46 47 48 49 50
000
AXUS43 KGID 010402
MISGRI

GID CWA HOURLY WEATHER ROUNDUP
NATIONAL WEATHER SERVICE HASTINGS NE
1100 PM CDT SUN MAY 31 2015

NOTE: "FAIR" INDICATES FEW OR NO CLOUDS BELOW 12,000 FEET WITH NO
SIGNIFICANT WEATHER AND/OR OBSTRUCTIONS TO VISIBILITY.

...SOUTH CENTRAL NEBRASKA...

CITY           SKY/WX    TMP DP  RH WIND       PRES   REMARKS
GRAND ISLAND   MOCLDY    61  48  62 SE13      30.11R
HASTINGS       CLEAR     62  50  64 SE14G23   30.10S
KEARNEY        PTCLDY    63  52  67 SE9       30.09S
ORD            CLEAR     60  48  64 SE12      30.08R
YORK           PTCLDY    59  48  67 SE12      30.13S
AURORA         CLEAR     60  47  62 SE12      30.11S
LEXINGTON      CLEAR     63  54  72 SE9G16    30.08R
HOLDREGE       CLEAR     63  52  67 SE14      30.08S
HEBRON         CLEAR     60  49  68 SE5       30.13R

...NEBRASKA PANHANDLE...

CITY           SKY/WX    TMP DP  RH WIND       PRES   REMARKS
CHADRON        CLEAR     62  56  80 NE5       30.01R
ALLIANCE       CLEAR     61  55  81 CALM      30.03R
SCOTTSBLUFF    CLEAR     63  55  75 CALM      30.04R
SIDNEY         CLEAR     58  55  90 SW7       30.08R

...WESTERN AND NORTH CENTRAL NEBRASKA...

CITY           SKY/WX    TMP DP  RH WIND       PRES   REMARKS
VALENTINE      PTCLDY    61  50  67 E9        30.03R
AINSWORTH      CLEAR     59  48  65 SE12      30.05S
ONEILL         PTCLDY    60  48  65 SE14      30.09R
BROKEN BOW     CLEAR     61  52  72 SE9       30.08R
IMPERIAL       PTCLDY    64  57  78 SE12      30.04R
NORTH PLATTE   CLEAR     62  53  72 SE15      30.06R
MCCOOK         PTCLDY    63  54  72 E13       30.05R

...EASTERN NEBRASKA...

CITY           SKY/WX    TMP DP  RH WIND       PRES   REMARKS
NORFOLK        CLOUDY    60  46  59 SE12      30.12S
SO SIOUX CITY  CLOUDY    58  45  62 SE7       30.16R
TEKAMAH        CLOUDY    61  43  51 E8        30.15S
COLUMBUS       MOCLDY    61  43  51 SE8       30.15S
ALBION         MOCLDY    57  44  60 SE8       30.12R
OMAHA EPPLEY   CLOUDY    62  41  46 E6        30.16R
OFFUTT AFB     CLOUDY    58  44  58 NE5       30.15R
MILLARD        CLOUDY    62  44  52 CALM      30.15S
LINCOLN        MOCLDY    61  46  57 SE7       30.15S
NEBRASKA CITY  MOCLDY    58  44  60 CALM      30.16R
BEATRICE       PTCLDY    60  51  71 CALM      30.15R
FALLS CITY     MOCLDY    60  51  72 E3        30.14R

...NORTHERN KANSAS...

CITY           SKY/WX    TMP DP  RH WIND       PRES   REMARKS
GOODLAND       CLOUDY    60  54  80 S10       30.03R
HILL CITY      PTCLDY    64  56  75 SE9       30.06S
NORTON         CLEAR     61  52  72 E9        30.07R
PHILLIPSBURG   CLOUDY    66  55  68 E12       30.09R
SMITH CENTER   CLEAR     59  54  82 E9        30.11R
HAYS           PTCLDY    63  52  67 SE12      30.07F
RUSSELL        CLEAR     61  56  83 SE10      30.09R
CONCORDIA      CLEAR     58  53  84 SE7       30.13R
SALINA         CLEAR     64  55  72 SE6       30.12R
TOPEKA         CLOUDY    64  58  80 CALM      30.13R



USA.gov is the U.S. government's official web portal to all federal, state and local government web resources and services.